Location: Unspecified
(54.1780°N, 0.0000°E)
Time: 01:03:33
(UTC+00:00)

Transit 2A - Pass Details

Date: 22 June 2019
Orbit: 600 x 959 km, 66.7° (Epoch: 14 October)

Event Time Altitude Azimuth Distance (km) Brightness Sun altitude
Rises 02:08:41 0° 242° (WSW) 3,635 - -7.7°
Exits shadow 02:09:33 - 243° (WSW) 3,326 8.8 -7.7°
Reaches altitude 10° 02:11:21 10° 247° (WSW) 2,689 8.3 -7.5°
Maximum altitude 02:17:30 51° 323° (NW) 1,171 7.1 -7.1°
Drops below altitude 10° 02:23:25 10° 39° (NE) 2,579 10.5 -6.6°
Sets 02:25:56 0° 45° (NE) 3,475 11.5 -6.4°
